Time[GMT],gps_lat[degrees_north](-3m),gps_lon[degrees_west](-3m),gps_2_lat[degrees_north](-3m),gps_2_lon[degrees_west](-3m)
2009-09-16 01:00,43.713451385,-69.356750488,43.71,-69.36
2009-09-16 02:00,43.713432312,-69.356781006,43.71,-69.36
2009-09-16 03:00,43.713417053,-69.356864929,43.71,-69.36
2009-09-16 04:00,43.713382721,-69.356819153,43.71,-69.36
2009-09-16 05:00,43.713432312,-69.356849670,43.71,-69.36
2009-09-16 06:00,43.713401794,-69.356849670,43.71,-69.36
2009-09-16 07:00,43.713348389,-69.356849670,43.71,-69.36
2009-09-16 08:00,43.713401794,-69.356903076,43.71,-69.36
2009-09-16 09:00,43.713417053,-69.356864929,43.71,-69.36
2009-09-16 10:00,43.713481903,-69.356819153,43.71,-69.36
2009-09-16 11:00,43.713451385,-69.356849670,43.71,-69.36
2009-09-16 12:00,43.713432312,-69.356819153,43.71,-69.36
2009-09-16 13:00,43.713417053,-69.356849670,43.71,-69.36
2009-09-16 14:00,43.713417053,-69.356880188,43.71,-69.36
2009-09-16 15:00,43.713466644,-69.356880188,43.71,-69.36
2009-09-16 16:00,43.713466644,-69.356880188,43.71,-69.36
2009-09-16 17:00,43.713481903,-69.356948853,43.71,-69.36
2009-09-16 18:00,43.713565826,-69.356987000,43.71,-69.36
2009-09-16 19:00,43.713600159,-69.356933594,43.71,-69.36
2009-09-16 20:00,43.713665009,-69.356864929,43.71,-69.36
2009-09-16 21:00,43.713733673,-69.356864929,43.71,-69.36
2009-09-16 22:00,43.713634491,-69.356864929,43.71,-69.36
2009-09-16 23:00,43.713584900,-69.356796265,43.71,-69.36
2009-09-17 00:00,43.713584900,-69.356819153,43.71,-69.36
2009-09-17 01:00,43.713516235,-69.356819153,43.71,-69.36
2009-09-17 02:00,43.713451385,-69.356819153,43.71,-69.36
2009-09-17 03:00,43.713432312,-69.356834412,43.71,-69.36
2009-09-17 04:00,43.713500977,-69.356834412,43.71,-69.36
2009-09-17 05:00,43.713481903,-69.356849670,43.71,-69.36
2009-09-17 06:00,43.713466644,-69.356796265,43.71,-69.36
2009-09-17 07:00,43.713466644,-69.356750488,43.71,-69.36
2009-09-17 08:00,43.713500977,-69.356765747,43.71,-69.36
2009-09-17 09:00,43.713565826,-69.356819153,43.71,-69.36
2009-09-17 10:00,43.713615417,-69.356781006,43.71,-69.36
2009-09-17 11:00,43.713649750,-69.356750488,43.71,-69.36
2009-09-17 12:00,43.713565826,-69.356781006,43.71,-69.36
2009-09-17 13:00,43.713516235,-69.356796265,43.71,-69.36
2009-09-17 14:00,43.713481903,-69.356819153,43.71,-69.36
2009-09-17 15:00,43.713500977,-69.356819153,43.71,-69.36
2009-09-17 16:00,43.713451385,-69.356819153,,
2009-09-17 17:00,43.713451385,-69.356864929,43.71,-69.36
2009-09-17 18:00,43.713432312,-69.356834412,43.71,-69.36
2009-09-17 19:00,43.713500977,-69.356834412,43.71,-69.36
2009-09-17 20:00,43.713584900,-69.356765747,43.71,-69.36
2009-09-17 21:00,43.713665009,-69.356765747,43.71,-69.36
2009-09-17 22:00,43.713718414,-69.356697083,43.71,-69.36
2009-09-17 23:00,43.713748932,-69.356636047,43.71,-69.36
2009-09-18 00:00,43.713817596,-69.356582642,43.71,-69.36
2009-09-18 01:00,43.713748932,-69.356597900,43.71,-69.36
2009-09-18 02:00,43.713600159,-69.356552124,43.71,-69.36
2009-09-18 03:00,43.713684082,-69.356636047,43.71,-69.36
2009-09-18 04:00,43.713649750,-69.356513977,43.71,-69.36
2009-09-18 05:00,43.713565826,-69.356597900,43.71,-69.36
2009-09-18 06:00,43.713584900,-69.356582642,43.71,-69.36
2009-09-18 07:00,43.713500977,-69.356330872,43.71,-69.36
2009-09-18 08:00,43.713600159,-69.356246948,43.71,-69.36
2009-09-18 09:00,43.713684082,-69.356185913,43.71,-69.36
2009-09-18 10:00,43.713699341,-69.356231689,43.71,-69.36
2009-09-18 11:00,43.713718414,-69.356300354,43.71,-69.36
2009-09-18 12:00,43.713733673,-69.356246948,43.71,-69.36
2009-09-18 13:00,43.713768005,-69.356246948,43.71,-69.36
2009-09-18 14:00,43.713748932,-69.356452942,43.71,-69.36
2009-09-18 15:00,43.713798523,-69.356414795,43.71,-69.36
2009-09-18 16:00,43.713634491,-69.356269836,43.71,-69.36
2009-09-18 17:00,43.713481903,-69.356567383,43.71,-69.36
2009-09-18 18:00,43.713401794,-69.356269836,43.71,-69.36
2009-09-18 19:00,43.713481903,-69.356185913,43.71,-69.36
2009-09-18 20:00,43.713550568,-69.356147766,43.71,-69.36
2009-09-18 21:00,43.713531494,-69.356132507,43.71,-69.36
2009-09-18 22:00,43.713500977,-69.356147766,43.71,-69.36
2009-09-18 23:00,43.713466644,-69.356300354,43.71,-69.36
2009-09-19 00:00,43.713298798,-69.356246948,43.71,-69.36
2009-09-19 01:00,43.713233948,-69.356315613,43.71,-69.36
2009-09-19 02:00,43.713199615,-69.356285095,43.71,-69.36
2009-09-19 03:00,43.713233948,-69.356330872,43.71,-69.36
2009-09-19 04:00,43.713199615,-69.356330872,43.71,-69.36
2009-09-19 05:00,43.713165283,-69.356315613,,
2009-09-19 06:00,43.713184357,-69.356330872,43.71,-69.36
2009-09-19 07:00,43.713184357,-69.356231689,43.71,-69.36
2009-09-19 08:00,43.713233948,-69.356033325,43.71,-69.36
2009-09-19 09:00,43.713333130,-69.356048584,43.71,-69.36
2009-09-19 10:00,43.713382721,-69.355918884,43.71,-69.36
2009-09-19 11:00,43.713432312,-69.355903625,43.71,-69.36
2009-09-19 12:00,43.713417053,-69.355834961,43.71,-69.36
2009-09-19 13:00,43.713401794,-69.355949402,,
2009-09-19 14:00,43.713401794,-69.355964661,43.71,-69.36
2009-09-19 15:00,43.713348389,-69.356163025,43.71,-69.36
2009-09-19 16:00,43.713298798,-69.356269836,43.71,-69.36
2009-09-19 17:00,43.713333130,-69.356414795,43.71,-69.36
2009-09-19 18:00,43.713283539,-69.356330872,43.71,-69.36
2009-09-19 19:00,43.713268280,-69.356201172,43.71,-69.36
2009-09-19 20:00,43.713317871,-69.356048584,43.71,-69.36
2009-09-19 21:00,43.713348389,-69.356048584,43.71,-69.36
2009-09-19 22:00,43.713401794,-69.356048584,43.71,-69.36
2009-09-19 23:00,43.713401794,-69.356018066,43.71,-69.36
2009-09-20 00:00,43.713417053,-69.356101990,43.71,-69.36
2009-09-20 01:00,43.713432312,-69.356063843,43.71,-69.36
2009-09-20 02:00,43.713417053,-69.356216431,43.71,-69.36
2009-09-20 03:00,43.713348389,-69.356369019,43.71,-69.36
2009-09-20 04:00,43.713367462,-69.356452942,43.71,-69.36
2009-09-20 05:00,43.713367462,-69.356468201,43.71,-69.36
2009-09-20 06:00,43.713367462,-69.356498718,43.71,-69.36
2009-09-20 07:00,43.713298798,-69.356399536,43.71,-69.36
2009-09-20 08:00,43.713333130,-69.356353760,43.71,-69.36
2009-09-20 09:00,43.713367462,-69.356300354,43.71,-69.36
2009-09-20 10:00,43.713382721,-69.356315613,43.71,-69.36
2009-09-20 11:00,43.713401794,-69.356269836,43.71,-69.36
2009-09-20 12:00,43.713382721,-69.356285095,43.71,-69.36
2009-09-20 13:00,43.713451385,-69.356246948,43.71,-69.36
2009-09-20 14:00,43.713401794,-69.356330872,43.71,-69.36
2009-09-20 15:00,43.713451385,-69.356414795,43.71,-69.36
2009-09-20 16:00,43.713466644,-69.356430054,43.71,-69.36
2009-09-20 17:00,43.713466644,-69.356452942,43.71,-69.36
2009-09-20 18:00,43.713348389,-69.356483459,43.71,-69.36
2009-09-20 19:00,43.713417053,-69.356369019,43.71,-69.36
2009-09-20 20:00,43.713516235,-69.356086731,,
2009-09-20 21:00,43.713516235,-69.355949402,43.71,-69.36
2009-09-20 22:00,43.713481903,-69.355964661,43.71,-69.36
2009-09-20 23:00,43.713531494,-69.355949402,43.71,-69.36
2009-09-21 00:00,43.713584900,-69.355964661,43.71,-69.36
2009-09-21 01:00,43.713550568,-69.355964661,,
2009-09-21 02:00,43.713516235,-69.356033325,43.71,-69.36
2009-09-21 03:00,43.713451385,-69.356231689,43.71,-69.36
2009-09-21 04:00,43.713417053,-69.356414795,43.71,-69.36
2009-09-21 05:00,43.713417053,-69.356513977,43.71,-69.36
2009-09-21 06:00,43.713401794,-69.356513977,43.71,-69.36
2009-09-21 07:00,43.713367462,-69.356468201,43.71,-69.36
2009-09-21 08:00,43.713466644,-69.356498718,43.71,-69.36
2009-09-21 09:00,43.713466644,-69.356452942,,
2009-09-21 10:00,43.713451385,-69.356369019,43.71,-69.36
2009-09-21 11:00,43.713481903,-69.356369019,43.71,-69.36
2009-09-21 12:00,43.713531494,-69.356369019,43.71,-69.36
2009-09-21 13:00,43.713516235,-69.356353760,,
2009-09-21 14:00,43.713531494,-69.356399536,,
2009-09-21 15:00,,,,
2009-09-21 16:00,43.713481903,-69.356468201,43.71,-69.36
2009-09-21 17:00,43.713466644,-69.356498718,43.71,-69.36
2009-09-21 18:00,43.713382721,-69.356498718,43.71,-69.36
2009-09-21 19:00,43.713466644,-69.356552124,43.71,-69.36
2009-09-21 20:00,43.713466644,-69.356498718,,
2009-09-21 21:00,43.713550568,-69.356536865,43.71,-69.36
2009-09-21 22:00,43.713531494,-69.356468201,43.71,-69.36
2009-09-21 23:00,43.713500977,-69.356414795,,
2009-09-22 00:00,43.713565826,-69.356399536,,
2009-09-22 01:00,43.713565826,-69.356399536,43.71,-69.36
2009-09-22 02:00,43.713565826,-69.356430054,,
2009-09-22 03:00,43.713600159,-69.356330872,,
2009-09-22 04:00,43.713516235,-69.356468201,43.71,-69.36
2009-09-22 05:00,43.713451385,-69.356483459,,
2009-09-22 06:00,43.713401794,-69.356468201,,
2009-09-22 07:00,43.713417053,-69.356483459,,
2009-09-22 08:00,43.713432312,-69.356513977,43.71,-69.36
2009-09-22 09:00,43.713432312,-69.356498718,43.71,-69.36
2009-09-22 10:00,43.713550568,-69.356452942,43.71,-69.36
2009-09-22 11:00,43.713615417,-69.356315613,43.71,-69.36
2009-09-22 12:00,43.713615417,-69.356300354,43.71,-69.36
2009-09-22 13:00,43.713665009,-69.356231689,43.71,-69.36
2009-09-22 14:00,43.713665009,-69.356201172,43.71,-69.36
2009-09-22 15:00,43.713783264,-69.356048584,43.71,-69.36
2009-09-22 16:00,43.713718414,-69.356033325,43.71,-69.36
2009-09-22 17:00,43.713718414,-69.356185913,43.71,-69.36
2009-09-22 18:00,43.713615417,-69.356315613,43.71,-69.36
2009-09-22 19:00,43.713500977,-69.356330872,43.71,-69.36
2009-09-22 20:00,43.713417053,-69.356483459,43.71,-69.36
2009-09-22 21:00,43.713417053,-69.356285095,43.71,-69.36
2009-09-22 22:00,43.713451385,-69.356201172,43.71,-69.36
2009-09-22 23:00,43.713634491,-69.356185913,43.71,-69.36
2009-09-23 00:00,43.713649750,-69.356048584,43.71,-69.36
2009-09-23 01:00,43.713600159,-69.356063843,43.71,-69.36
2009-09-23 02:00,43.713516235,-69.356086731,43.71,-69.36
2009-09-23 03:00,43.713649750,-69.356201172,43.71,-69.36
2009-09-23 04:00,43.713684082,-69.356231689,43.71,-69.36
2009-09-23 05:00,43.713665009,-69.356285095,43.71,-69.36
2009-09-23 06:00,43.713600159,-69.356300354,43.71,-69.36
2009-09-23 07:00,43.713615417,-69.356300354,43.71,-69.36
2009-09-23 08:00,43.713615417,-69.356330872,43.71,-69.36
2009-09-23 09:00,43.713665009,-69.356201172,43.71,-69.36
2009-09-23 10:00,43.713718414,-69.356132507,43.71,-69.36
2009-09-23 11:00,43.713748932,-69.356101990,43.71,-69.36
2009-09-23 12:00,43.713684082,-69.355979919,43.71,-69.36
2009-09-23 13:00,43.713634491,-69.355903625,43.71,-69.36
2009-09-23 14:00,43.713699341,-69.355918884,43.71,-69.36
2009-09-23 15:00,43.713649750,-69.355865479,43.71,-69.36
2009-09-23 16:00,43.713615417,-69.355949402,43.71,-69.36
2009-09-23 17:00,43.713733673,-69.356033325,43.71,-69.36
2009-09-23 18:00,43.713565826,-69.356147766,43.71,-69.36
2009-09-23 19:00,43.713634491,-69.356163025,43.71,-69.36
2009-09-23 20:00,43.713718414,-69.356201172,43.71,-69.36
2009-09-23 21:00,43.713748932,-69.356147766,43.71,-69.36
2009-09-23 22:00,43.713748932,-69.356147766,43.71,-69.36
2009-09-23 23:00,43.713817596,-69.356101990,,
2009-09-24 00:00,43.713817596,-69.355964661,43.71,-69.36
2009-09-24 01:00,43.713768005,-69.355880737,43.71,-69.36
2009-09-24 02:00,43.713768005,-69.355865479,43.71,-69.36
2009-09-24 03:00,43.713798523,-69.355865479,43.71,-69.36
2009-09-24 04:00,43.713783264,-69.355880737,43.71,-69.36
2009-09-24 05:00,43.713783264,-69.355903625,43.71,-69.36
2009-09-24 06:00,43.713733673,-69.355918884,43.71,-69.36
2009-09-24 07:00,43.713615417,-69.355918884,43.71,-69.36
2009-09-24 08:00,43.713584900,-69.356033325,43.71,-69.36
2009-09-24 09:00,43.713481903,-69.356132507,43.71,-69.36
2009-09-24 10:00,43.713432312,-69.356147766,43.71,-69.36
2009-09-24 11:00,43.713516235,-69.356216431,43.71,-69.36
2009-09-24 12:00,43.713634491,-69.356384277,43.71,-69.36
2009-09-24 13:00,43.713481903,-69.356086731,43.71,-69.36
2009-09-24 14:00,43.713531494,-69.356132507,43.71,-69.36
2009-09-24 15:00,43.713531494,-69.356117249,43.71,-69.36
2009-09-24 16:00,43.713500977,-69.356117249,43.71,-69.36
2009-09-24 17:00,43.713565826,-69.356246948,43.71,-69.36
2009-09-24 18:00,43.713516235,-69.356285095,43.71,-69.36
2009-09-24 19:00,43.713615417,-69.356285095,43.71,-69.36
2009-09-24 20:00,43.713649750,-69.356246948,43.71,-69.36
2009-09-24 21:00,43.713649750,-69.356246948,43.71,-69.36
2009-09-24 22:00,43.713649750,-69.356201172,43.71,-69.36
2009-09-24 23:00,43.713565826,-69.356147766,43.71,-69.36
2009-09-25 00:00,43.713615417,-69.356132507,43.71,-69.36
2009-09-25 01:00,43.713600159,-69.356086731,43.71,-69.36
2009-09-25 02:00,43.713550568,-69.356063843,43.71,-69.36
2009-09-25 03:00,43.713584900,-69.356048584,43.71,-69.36
2009-09-25 04:00,,,43.71,-69.36
2009-09-25 05:00,,,43.71,-69.36
2009-09-25 06:00,43.713600159,-69.356117249,43.71,-69.36
2009-09-25 07:00,43.713600159,-69.356132507,43.71,-69.36
2009-09-25 08:00,43.713565826,-69.356163025,43.71,-69.36
2009-09-25 09:00,43.713500977,-69.356117249,43.71,-69.36
2009-09-25 10:00,43.713417053,-69.356117249,43.71,-69.36
2009-09-25 11:00,43.713367462,-69.356147766,43.71,-69.36
2009-09-25 12:00,43.713298798,-69.356185913,43.71,-69.36
2009-09-25 13:00,43.713298798,-69.356330872,43.71,-69.36
2009-09-25 14:00,43.713150024,-69.356285095,43.71,-69.36
2009-09-25 15:00,43.713184357,-69.356430054,43.71,-69.36
2009-09-25 16:00,43.713184357,-69.356468201,43.71,-69.36
2009-09-25 17:00,43.713184357,-69.356567383,,
2009-09-25 18:00,43.713233948,-69.356613159,43.71,-69.36
2009-09-25 19:00,43.713317871,-69.356765747,43.71,-69.36
2009-09-25 20:00,43.713382721,-69.356796265,43.71,-69.36
2009-09-25 21:00,43.713481903,-69.356880188,43.71,-69.36
2009-09-25 22:00,43.713466644,-69.356796265,43.71,-69.36
2009-09-25 23:00,43.713367462,-69.356765747,43.71,-69.36
2009-09-26 00:00,43.713432312,-69.356819153,,
2009-09-26 01:00,43.713466644,-69.356834412,43.71,-69.36
2009-09-26 02:00,43.713481903,-69.356781006,43.71,-69.36
2009-09-26 03:00,43.713466644,-69.356765747,43.71,-69.36
2009-09-26 04:00,43.713401794,-69.356735229,43.71,-69.36
2009-09-26 05:00,43.713550568,-69.356719971,43.71,-69.36
2009-09-26 06:00,43.713451385,-69.356513977,43.71,-69.36
2009-09-26 07:00,43.713401794,-69.356498718,43.71,-69.36
2009-09-26 08:00,43.713348389,-69.356498718,43.71,-69.36
2009-09-26 09:00,43.713382721,-69.356582642,43.71,-69.36
2009-09-26 10:00,43.713348389,-69.356567383,43.71,-69.36
2009-09-26 11:00,43.713333130,-69.356666565,43.71,-69.36
2009-09-26 12:00,43.713382721,-69.356697083,43.71,-69.36
2009-09-26 13:00,43.713481903,-69.356681824,43.71,-69.36
2009-09-26 14:00,43.713500977,-69.356666565,43.71,-69.36
2009-09-26 15:00,43.713565826,-69.356666565,43.71,-69.36
2009-09-26 16:00,43.713634491,-69.356636047,43.71,-69.36
2009-09-26 17:00,43.713665009,-69.356536865,,
2009-09-26 18:00,43.713684082,-69.356430054,43.71,-69.36
2009-09-26 19:00,43.713699341,-69.356414795,43.71,-69.36
2009-09-26 20:00,43.713748932,-69.356399536,43.71,-69.36
2009-09-26 21:00,43.713684082,-69.356384277,43.71,-69.36
2009-09-26 22:00,43.713699341,-69.356414795,43.71,-69.36
2009-09-26 23:00,43.713699341,-69.356369019,43.71,-69.36
2009-09-27 00:00,43.713699341,-69.356330872,43.71,-69.36
2009-09-27 01:00,43.713817596,-69.356285095,,
2009-09-27 02:00,43.713867188,-69.356216431,,
2009-09-27 03:00,43.713932037,-69.356147766,43.71,-69.36
2009-09-27 04:00,43.713848114,-69.356101990,43.71,-69.36
2009-09-27 05:00,43.713981628,-69.355850220,43.71,-69.36
2009-09-27 06:00,43.713966370,-69.355834961,43.71,-69.36
2009-09-27 07:00,43.713966370,-69.355865479,43.71,-69.36
2009-09-27 08:00,43.714000702,-69.355865479,43.71,-69.36
2009-09-27 09:00,43.713916779,-69.355934143,43.71,-69.36
2009-09-27 10:00,,,43.71,-69.36
2009-09-27 11:00,43.713783264,-69.356002808,43.71,-69.36
2009-09-27 12:00,43.713718414,-69.356147766,43.71,-69.36
2009-09-27 13:00,43.713768005,-69.356201172,43.71,-69.36
2009-09-27 14:00,43.713817596,-69.356246948,43.71,-69.36
2009-09-27 15:00,43.713981628,-69.356369019,43.71,-69.36
2009-09-27 16:00,43.714015961,-69.356285095,43.71,-69.36
2009-09-27 17:00,43.714050293,-69.356315613,,
2009-09-27 18:00,43.714035034,-69.356231689,43.71,-69.36
2009-09-27 19:00,43.714050293,-69.356185913,43.71,-69.36
2009-09-27 20:00,43.714035034,-69.356201172,43.71,-69.36
2009-09-27 21:00,43.714035034,-69.356231689,,
2009-09-27 22:00,43.714015961,-69.356285095,43.71,-69.36
2009-09-27 23:00,43.714000702,-69.356369019,43.71,-69.36
2009-09-28 00:00,43.714015961,-69.356384277,43.71,-69.36
2009-09-28 01:00,43.713916779,-69.356552124,43.71,-69.36
2009-09-28 02:00,43.713901520,-69.356781006,43.71,-69.36
2009-09-28 03:00,43.714035034,-69.356781006,43.71,-69.36
2009-09-28 04:00,43.714065552,-69.356697083,43.71,-69.36
2009-09-28 05:00,43.714099884,-69.356384277,43.71,-69.36
2009-09-28 06:00,43.714134216,-69.356269836,43.71,-69.36
2009-09-28 07:00,43.714099884,-69.356185913,43.71,-69.36
2009-09-28 08:00,43.714065552,-69.356147766,43.71,-69.36
2009-09-28 09:00,43.714065552,-69.356132507,,
2009-09-28 10:00,43.713951111,-69.356117249,43.71,-69.36
2009-09-28 11:00,43.713798523,-69.356063843,43.71,-69.36
2009-09-28 12:00,,,43.71,-69.36
2009-09-28 13:00,43.713649750,-69.356201172,43.71,-69.36
2009-09-28 14:00,43.713649750,-69.356132507,43.71,-69.36
2009-09-28 15:00,43.713665009,-69.356163025,43.71,-69.36
2009-09-28 16:00,43.713718414,-69.356117249,,
2009-09-28 17:00,43.713832855,-69.356163025,43.71,-69.36
2009-09-28 18:00,43.713867188,-69.356147766,43.71,-69.36
2009-09-28 19:00,43.713981628,-69.356231689,43.71,-69.36
2009-09-28 20:00,43.714065552,-69.356246948,43.71,-69.36
2009-09-28 21:00,43.714015961,-69.356269836,43.71,-69.36
2009-09-28 22:00,43.714065552,-69.356285095,43.71,-69.36
2009-09-28 23:00,43.714035034,-69.356300354,43.71,-69.36
2009-09-29 00:00,43.714065552,-69.356285095,43.71,-69.36
2009-09-29 01:00,43.714065552,-69.356201172,,
2009-09-29 02:00,43.714065552,-69.356117249,43.71,-69.36
2009-09-29 03:00,43.714015961,-69.356185913,,
2009-09-29 04:00,43.713951111,-69.356117249,43.71,-69.36
2009-09-29 05:00,43.714015961,-69.356147766,43.71,-69.36
2009-09-29 06:00,43.713966370,-69.356063843,43.71,-69.36
2009-09-29 07:00,43.713867188,-69.356033325,43.71,-69.36
2009-09-29 08:00,43.713848114,-69.356063843,43.71,-69.36
2009-09-29 09:00,43.713932037,-69.356117249,43.71,-69.36
2009-09-29 10:00,43.713966370,-69.356231689,43.71,-69.36
2009-09-29 11:00,43.713916779,-69.356201172,43.71,-69.36
2009-09-29 12:00,43.713981628,-69.356163025,43.71,-69.36
2009-09-29 13:00,43.713951111,-69.356285095,,
2009-09-29 14:00,43.713932037,-69.356269836,,
2009-09-29 15:00,43.713916779,-69.356201172,43.71,-69.36
2009-09-29 16:00,43.713951111,-69.356163025,43.71,-69.36
2009-09-29 17:00,43.713966370,-69.356117249,,
2009-09-29 18:00,43.713981628,-69.356086731,43.71,-69.36
2009-09-29 19:00,43.714050293,-69.356018066,43.71,-69.36
2009-09-29 20:00,43.714065552,-69.356086731,43.71,-69.36
2009-09-29 21:00,43.714050293,-69.356101990,43.71,-69.36
2009-09-29 22:00,43.714065552,-69.356086731,,
2009-09-29 23:00,43.714000702,-69.356117249,43.71,-69.36
2009-09-30 00:00,43.714000702,-69.356063843,43.71,-69.36
2009-09-30 01:00,43.713966370,-69.356063843,43.71,-69.36
2009-09-30 02:00,43.713882446,-69.356048584,43.71,-69.36
2009-09-30 03:00,43.713848114,-69.355964661,43.71,-69.36
2009-09-30 04:00,43.713848114,-69.355964661,43.71,-69.36
2009-09-30 05:00,43.713882446,-69.355880737,43.71,-69.36
2009-09-30 06:00,43.713932037,-69.355880737,43.71,-69.36
2009-09-30 07:00,43.713932037,-69.355918884,43.71,-69.36
2009-09-30 08:00,43.713932037,-69.355964661,43.71,-69.36
2009-09-30 09:00,43.713932037,-69.356002808,43.71,-69.36
2009-09-30 10:00,43.713848114,-69.356002808,43.71,-69.36
2009-09-30 11:00,43.713832855,-69.356063843,43.71,-69.36
2009-09-30 12:00,43.713848114,-69.356086731,43.71,-69.36
2009-09-30 13:00,43.713798523,-69.356132507,43.71,-69.36
2009-09-30 14:00,43.713798523,-69.356185913,43.71,-69.36
2009-09-30 15:00,43.713783264,-69.356201172,43.71,-69.36
2009-09-30 16:00,43.713867188,-69.356163025,43.71,-69.36
2009-09-30 17:00,43.713901520,-69.356132507,43.71,-69.36
2009-09-30 18:00,43.713932037,-69.356101990,43.71,-69.36
2009-09-30 19:00,43.713966370,-69.356002808,43.71,-69.36
2009-09-30 20:00,43.714000702,-69.356033325,43.71,-69.36
2009-09-30 21:00,43.713981628,-69.356048584,43.71,-69.36
2009-09-30 22:00,43.713932037,-69.355934143,43.71,-69.36
2009-09-30 23:00,43.713665009,-69.355850220,43.71,-69.36
2009-10-01 00:00,43.713565826,-69.355979919,43.71,-69.36
2009-10-01 01:00,43.713417053,-69.355949402,43.71,-69.36
2009-10-01 02:00,43.713333130,-69.356086731,43.71,-69.36
2009-10-01 03:00,43.713348389,-69.356231689,43.71,-69.36
2009-10-01 04:00,43.713268280,-69.356246948,43.71,-69.36
2009-10-01 05:00,43.713333130,-69.356231689,43.71,-69.36
2009-10-01 06:00,43.713417053,-69.356201172,43.71,-69.36
2009-10-01 07:00,43.713432312,-69.356086731,43.71,-69.36
2009-10-01 08:00,43.713466644,-69.356002808,43.71,-69.36
2009-10-01 09:00,43.713584900,-69.355949402,43.71,-69.36
2009-10-01 10:00,43.713584900,-69.355979919,43.70,-69.35
2009-10-01 11:00,43.713634491,-69.356002808,43.71,-69.36
2009-10-01 12:00,43.713634491,-69.356002808,43.71,-69.36
2009-10-01 13:00,43.713600159,-69.356002808,43.71,-69.36
2009-10-01 14:00,43.713550568,-69.356018066,43.71,-69.36
2009-10-01 15:00,43.713550568,-69.356048584,43.71,-69.36
2009-10-01 16:00,43.713565826,-69.355964661,43.71,-69.36
2009-10-01 17:00,43.713565826,-69.355865479,43.71,-69.36
2009-10-01 18:00,43.713565826,-69.355918884,43.71,-69.36
2009-10-01 19:00,,,,
2009-10-01 20:00,43.713600159,-69.355949402,43.71,-69.36
2009-10-01 21:00,43.713600159,-69.355964661,43.71,-69.36
2009-10-01 22:00,43.713615417,-69.356002808,43.71,-69.36
2009-10-01 23:00,43.713615417,-69.356033325,43.71,-69.36
2009-10-02 00:00,43.713565826,-69.356048584,43.71,-69.36
2009-10-02 01:00,43.713584900,-69.356147766,43.71,-69.36
2009-10-02 02:00,43.713550568,-69.356216431,43.71,-69.36
2009-10-02 03:00,43.713516235,-69.356201172,43.71,-69.36
2009-10-02 04:00,43.713516235,-69.356163025,43.71,-69.36
2009-10-02 05:00,43.713500977,-69.356201172,43.71,-69.36
2009-10-02 06:00,43.713584900,-69.356117249,43.71,-69.36
2009-10-02 07:00,43.713584900,-69.356033325,43.71,-69.36
2009-10-02 08:00,43.713565826,-69.356018066,43.71,-69.36
2009-10-02 09:00,43.713584900,-69.356002808,43.71,-69.36
2009-10-02 10:00,43.713550568,-69.355979919,43.71,-69.36
2009-10-02 11:00,43.713550568,-69.355964661,43.71,-69.36
2009-10-02 12:00,43.713584900,-69.356048584,43.71,-69.36
2009-10-02 13:00,43.713550568,-69.356132507,43.71,-69.36
2009-10-02 14:00,43.713531494,-69.356163025,43.71,-69.36
2009-10-02 15:00,43.713550568,-69.356231689,43.71,-69.36
2009-10-02 16:00,43.713584900,-69.356300354,,
2009-10-02 17:00,43.713516235,-69.356300354,43.71,-69.36
2009-10-02 18:00,43.713584900,-69.356246948,43.71,-69.36
2009-10-02 19:00,43.713665009,-69.356132507,43.71,-69.36
2009-10-02 20:00,43.713733673,-69.356163025,43.71,-69.36
2009-10-02 21:00,43.713733673,-69.356147766,43.71,-69.36
2009-10-02 22:00,43.713718414,-69.356132507,43.71,-69.36
2009-10-02 23:00,43.713733673,-69.356147766,43.71,-69.36
2009-10-03 00:00,43.713748932,-69.356185913,43.71,-69.36
2009-10-03 01:00,43.713733673,-69.356216431,,
2009-10-03 02:00,43.713718414,-69.356246948,,
2009-10-03 03:00,43.713718414,-69.356300354,43.71,-69.36
2009-10-03 04:00,43.713718414,-69.356369019,43.71,-69.36
2009-10-03 05:00,43.713748932,-69.356384277,43.71,-69.36
2009-10-03 06:00,43.713748932,-69.356399536,43.71,-69.36
2009-10-03 07:00,43.713733673,-69.356369019,43.71,-69.36
2009-10-03 08:00,43.713783264,-69.356399536,43.71,-69.36
2009-10-03 09:00,43.713783264,-69.356384277,43.71,-69.36
2009-10-03 10:00,43.713798523,-69.356369019,43.71,-69.36
2009-10-03 11:00,43.713867188,-69.356414795,43.71,-69.36
2009-10-03 12:00,43.714050293,-69.356315613,43.71,-69.36
2009-10-03 13:00,43.713951111,-69.356582642,43.71,-69.36